Home > Weather > Tianjin > Past weeks

Flag for China Past Weather in Tianjin, Tianjin Municipality, China — Yesterday and Last 2 Weeks

Now
86 °F

Haze.


Feels Like: 97 °F
Forecast: 78 / 87 °F
Wind: 10 mph from East

Location: Tianjin / Zhangguizhu

Current Time: Jul 31, 2016 at 3:33:48 PM

Latest Report: Jul 31, 2016 at 3:00 PM


Visibility: 2 mi

Pressure: 29.74 "Hg

Humidity: 75%

Dew Point: 77 °F

Location of TianjinLocation

Past Weather in Tianjin — Graph

°F

Tianjin Temperature Yesterday

Maximum temperature yesterday: 90 °F (at 12:30 PM)
Minimum temperature yesterday: 75 °F (at 7:00 PM)
Average temperature yesterday: 82 °F

High & Low Weather Summary for the Past Weeks

 TemperatureHumidityPressure
High95 °F (Jul 24, 1:00 PM)100% (Jul 20, 9:30 AM)29.83 "Hg (Jul 20, 9:30 AM)
Low72 °F (Jul 18, 2:00 AM)35% (Jul 16, 2:00 PM)29.42 "Hg (Jul 20, 1:30 PM)
Average81 °F79%29.63 "Hg
* Reported Jul 16 2:00 PM — Jul 31 2:30 PM, Tianjin, Weather by CustomWeather, © 2016

Note: Actual official high and low records may vary slightly from our data, if they occured in-between our weather recording intervals... More about our weather records

Advertising

Tianjin Weather History for the Previous 24 Hours

Scroll right to see more
 ConditionsComfort  
Time TempWeatherWind HumidityBarometerVisibility
2:30 PM
Sun, Jul 31
88 °FHaze.8 mph70%29.74 "Hg3 mi
2:00 PM88 °FPartly sunny.10 mph70%29.74 "Hg4 mi
1:30 PM88 °FPartly sunny.8 mph70%29.77 "Hg4 mi
1:00 PM88 °FScattered clouds.6 mph70%29.77 "Hg3 mi
12:30 PM88 °FScattered clouds.6 mph70%29.77 "Hg3 mi
12:00 PM88 °FScattered clouds.3 mph66%29.77 "Hg3 mi
11:30 AM88 °FPartly sunny.1 mph70%29.80 "Hg3 mi
11:00 AM88 °FScattered clouds.6 mph70%29.77 "Hg3 mi
10:30 AM86 °FFog.6 mph75%29.77 "Hg3 mi
10:00 AM84 °FFog.3 mph79%29.80 "Hg3 mi
9:30 AM82 °FFog.6 mph84%29.80 "Hg2 mi
9:00 AM81 °FFog.8 mph84%29.83 "Hg2 mi
8:30 AM81 °FFog.8 mph84%29.83 "Hg2 mi
8:00 AM81 °FFog.3 mph84%29.83 "Hg2 mi
7:30 AM79 °FFog.3 mph89%29.83 "Hg2 mi
7:00 AM79 °FFog.3 mph89%29.80 "Hg3 mi
6:30 AM77 °FFog.3 mph94%29.80 "Hg2 mi
6:00 AM77 °FFog.6 mph89%29.80 "Hg1 mi
5:30 AM75 °FFog.1 mph94%29.77 "Hg1 mi
5:00 AM75 °FFog.1 mph89%29.77 "Hg1 mi
4:30 AM75 °FFog.1 mph94%29.77 "Hg2 mi
4:00 AM73 °FFog.3 mph94%29.74 "Hg1 mi
3:30 AM75 °FFog.3 mph89%29.74 "Hg1 mi
3:00 AM75 °FFog.3 mph89%29.77 "Hg2 mi
2:30 AM75 °FFog.3 mph89%29.77 "Hg2 mi
2:00 AM75 °FFog.3 mph89%29.77 "Hg2 mi
1:30 AM75 °FFog.3 mph89%29.77 "Hg2 mi
1:00 AM75 °FFog.6 mph94%29.77 "Hg2 mi
12:30 AM77 °FFog.3 mph89%29.77 "Hg2 mi
12:00 AM75 °FFog.3 mph94%29.77 "Hg2 mi
11:30 PM
Sat, Jul 30
77 °FFog.3 mph89%29.77 "Hg2 mi
11:00 PM77 °FClear.3 mph89%29.77 "Hg4 mi
10:30 PM77 °FPassing clouds.1 mph89%29.77 "Hg5 mi
10:00 PM77 °FPassing clouds.3 mph89%29.80 "HgN/A
9:30 PM79 °FPassing clouds.10 mph84%29.83 "HgN/A
9:00 PM77 °FPassing clouds.10 mph83%29.83 "HgN/A
8:30 PM75 °FClear.1 mph89%29.77 "Hg10 mi
8:00 PM75 °FClear.6 mph89%29.74 "Hg10 mi
7:30 PM75 °FClear.13 mph89%29.74 "Hg10 mi
7:00 PM75 °FPassing clouds.8 mph89%29.77 "HgN/A
6:30 PM77 °FSunny.13 mph83%29.74 "Hg10 mi
6:00 PM81 °FSprinkles. Fog.20 mph89%29.71 "Hg1 mi
5:30 PM79 °FSprinkles. Clear.8 mph70%29.68 "HgN/A
5:00 PM77 °FThunderstorms. Passing clouds.15 mph74%29.71 "Hg5 mi
4:30 PM81 °FThunderstorms. Fog.6 mph94%29.77 "Hg1 mi
4:00 PM82 °FThunderstorms. Fog.6 mph89%29.74 "Hg1 mi
3:30 PM84 °FFog.6 mph84%29.71 "Hg1 mi
3:00 PM84 °FFog.8 mph84%29.71 "Hg1 mi
Weather by CustomWeather, © 2016

See weather overviewHow to use our weather pages